Location: Ethel Rock
(53.4667°N, 4.5667°W)
Time: 01:05:32
(UTC+00:00)

ATLAS 3B R/B - Pass Details

Date: 24 October 2020
Orbit: 1014 x 1181 km, 63.8° (Epoch: 23 November)

Event Time Altitude Azimuth Distance (km) Brightness Sun altitude
Rises 05:48:55 0° 206° (SSW) 3,739 5.3 -11.6°
Reaches altitude 10° 05:51:32 10° 202° (SSW) 2,791 4.7 -11.2°
Maximum altitude 05:57:53 56° 126° (SE) 1,206 3.4 -10.2°
Drops below altitude 10° 06:04:24 10° 50° (NE) 2,856 5.6 -9.3°
Sets 06:07:06 0° 47° (NE) 3,833 6.2 -8.9°
